CDT,Max TemperatureF,Mean TemperatureF,Min TemperatureF,Max Dew PointF,MeanDew PointF,Min DewpointF,Max Humidity, Mean Humidity, Min Humidity, Max Sea Level PressureIn, Mean Sea Level PressureIn, Min Sea Level PressureIn, Max VisibilityMiles, Mean VisibilityMiles, Min VisibilityMiles, Max Wind SpeedMPH, Mean Wind SpeedMPH, Max Gust SpeedMPH,PrecipitationIn, CloudCover, Events, WindDirDegrees
2013-7-1,79,67,55,55,48,41,82,49,26,30.29,30.24,30.21,10,10,3,12,3,,0.00,1,,41
2013-7-2,83,68,54,58,50,41,86,55,22,30.23,30.18,30.11,10,10,7,10,4,,0.00,1,Thunderstorm,348
2013-7-3,87,72,56,55,48,37,85,48,17,30.12,30.02,29.93,10,10,10,13,5,17,0.00,1,,175
2013-7-4,90,75,60,59,51,45,69,45,21,29.96,29.89,29.81,10,10,7,18,10,28,0.00,0,Rain,176
2013-7-5,91,78,65,61,55,52,66,45,30,29.87,29.82,29.78,10,10,10,16,10,23,0.00,1,,163
2013-7-6,93,82,71,66,58,55,66,46,29,29.83,29.78,29.76,10,10,10,16,10,21,0.00,1,Rain,160
2013-7-7,89,76,65,70,65,61,89,68,47,30.02,29.90,29.83,10,9,0,32,6,48,0.38,1,Rain-Thunderstorm,61
2013-7-8,95,80,64,72,67,62,91,69,36,30.03,29.98,29.92,10,8,2,15,6,20,0.03,1,Rain-Thunderstorm,84
2013-7-9,85,77,69,70,66,58,89,68,41,30.10,29.99,29.87,10,9,4,14,8,20,0.00,1,Thunderstorm,6
2013-7-10,84,72,62,64,61,59,88,67,44,30.17,30.11,30.04,10,10,10,14,6,,0.00,1,Rain-Thunderstorm,53
2013-7-11,90,78,65,64,61,56,82,58,37,30.09,30.01,29.91,10,10,10,24,11,31,0.00,0,,163
2013-7-12,95,82,70,69,63,58,66,51,34,29.95,29.88,29.83,10,10,10,22,15,32,0.00,0,Thunderstorm,166
2013-7-13,93,83,73,72,69,66,81,61,45,29.95,29.91,29.88,10,10,10,15,5,20,0.00,0,,127
2013-7-14,81,76,71,69,67,66,86,75,63,30.18,30.06,29.92,10,10,5,17,9,22,0.00,6,Rain-Thunderstorm,128
2013-7-15,88,75,62,67,57,48,85,55,25,30.22,30.18,30.13,10,10,7,17,7,23,0.00,2,,159
2013-7-16,86,74,64,62,60,57,84,59,38,30.26,30.21,30.17,10,10,10,22,10,28,0.00,1,,178
2013-7-17,90,77,64,62,59,55,85,53,30,30.30,30.24,30.15,10,10,10,21,9,25,0.00,1,,182
2013-7-18,95,83,71,64,59,54,71,47,25,30.15,30.02,29.89,10,10,10,24,12,33,0.00,0,,196
2013-7-19,86,77,66,67,57,47,77,50,26,30.05,29.99,29.92,10,10,10,14,8,20,0.00,0,,346
2013-7-20,85,72,60,64,58,53,85,66,35,30.09,29.97,29.89,10,10,2,32,9,41,0.49,2,Rain-Thunderstorm,124
2013-7-21,88,74,62,65,60,51,90,63,29,29.97,29.87,29.81,10,9,4,20,5,25,0.00,0,Thunderstorm,108
2013-7-22,85,76,67,68,62,54,84,62,35,29.93,29.86,29.79,10,10,10,20,8,24,0.00,0,,329
2013-7-23,79,70,62,62,59,56,90,71,46,30.07,30.01,29.90,10,10,7,22,9,29,0.03,1,Rain-Thunderstorm,59
2013-7-24,84,70,55,64,59,52,91,68,40,30.14,30.08,30.02,10,10,4,12,3,,0.00,1,Rain-Thunderstorm,165
2013-7-25,85,74,62,66,60,53,91,67,35,30.09,30.03,30.00,10,8,2,16,6,20,0.00,1,,281
2013-7-26,72,64,55,58,50,44,87,64,37,30.24,30.18,30.08,10,10,10,17,8,24,0.00,2,Thunderstorm,345
2013-7-27,72,60,49,49,44,36,89,56,28,30.20,30.14,30.07,10,10,7,10,5,,0.00,1,Thunderstorm,4
2013-7-28,78,62,46,54,46,42,90,55,30,30.10,30.06,30.00,10,10,10,12,4,18,0.00,3,,142
2013-7-29,68,64,59,61,58,53,90,82,65,30.08,30.03,30.01,10,8,2,14,7,18,0.21,8,Rain,138
2013-7-30,80,72,63,64,62,59,91,79,50,30.18,30.11,30.06,10,7,0,14,4,18,0.07,5,Fog-Rain-Thunderstorm,124
2013-7-31,81,70,60,64,60,57,91,72,44,30.21,30.16,30.07,10,8,4,14,4,,0.07,1,,329